Change the Weather History Date:

Tuesday, January 1, 2002

  Actual Average Record
Temperature  
Mean Temperature 21 °F -  
Max Temperature 30 °F 32 °F 54 °F (2011)
Min Temperature 12 °F 19 °F 5 °F (1977)
Degree Days  
Heating Degree Days 44    
Moisture  
Dew Point 16 °F    
Average Humidity 80    
Maximum Humidity 92    
Minimum Humidity 61    
Precipitation  
Precipitation 0.00 in - - ()
Sea Level Pressure  
Sea Level Pressure 30.34 in    
Wind  
Wind Speed 7 mph (WNW)    
Max Wind Speed 12 mph    
Max Gust Speed -    
Visibility 10 miles    
Events Snow    
Averages and records for this station are not official NWS values.
T = Trace of Precipitation, MM = Missing Value Source: NWS Daily Summary

Daily Weather History Graph

Daily Weather History Graph

Search for Another Location

Airport or City:

Trip Planner

Search our weather history database for the weather conditions in past years. The results will help you decide how hot, cold, wet, or windy it might be!

Date:

Astronomy

Jan. 01, 2002 Rise Set
Actual Time 8:03 AM EST 5:12 PM EST
Civil Twilight 7:31 AM EST 5:44 PM EST
Nautical Twilight 6:56 AM EST 6:19 PM EST
Astronomical Twilight 6:22 AM EST 6:53 PM EST
Moon 7:52 PM EST (1/1) 10:05 AM EST (1/1)
Length of Visible Light 10h 13m
Length of Day
9h 09m
Waning Gibbous, 93% of the Moon is Illuminated
Jan 1
Waning Gibbous
Jan 5
Last Quarter
Jan 13
New
Jan 21
First Quarter
Jan 28
Full

Hourly Weather History & Observations

Time (EST) Temp. Windchill Dew Point Humidity Pressure Visibility Wind Dir Wind Speed Gust Speed Precip Events Conditions
12:53 AM 18.0 °F 6.9 °F 14.0 °F 84% 30.22 in 9.0 mi SW 9.2 mph - 0.00 in Snow Light Snow
1:53 AM 15.1 °F 5.2 °F 12.0 °F 88% 30.22 in 9.0 mi WSW 6.9 mph - 0.00 in Snow Light Snow
2:53 AM 14.0 °F 6.5 °F 10.9 °F 88% 30.23 in 9.0 mi West 4.6 mph - 0.00 in Snow Light Snow
3:53 AM 12.9 °F 3.8 °F 10.9 °F 92% 30.25 in 9.0 mi WSW 5.8 mph - 0.00 in   Clear
4:53 AM 12.9 °F 3.8 °F 9.0 °F 84% 30.26 in 10.0 mi WNW 5.8 mph - N/A   Clear
5:53 AM 12.9 °F 3.8 °F 10.0 °F 88% 30.26 in 10.0 mi WSW 5.8 mph - N/A   Mostly Cloudy
6:53 AM 15.1 °F 6.4 °F 12.0 °F 88% 30.27 in 10.0 mi SW 5.8 mph - N/A   Overcast
7:53 AM 16.0 °F - 14.0 °F 92% 30.30 in 10.0 mi Calm Calm - N/A   Overcast
8:53 AM 19.0 °F 10.0 °F 15.1 °F 85% 30.32 in 10.0 mi WNW 6.9 mph - N/A   Overcast
9:53 AM 19.9 °F 10.1 °F 16.0 °F 85% 30.35 in 10.0 mi WSW 8.1 mph - N/A   Partly Cloudy
10:53 AM 21.9 °F 13.4 °F 17.1 °F 82% 30.36 in 10.0 mi WSW 6.9 mph - N/A   Clear
11:53 AM 27.0 °F 19.5 °F 19.0 °F 72% 30.35 in 10.0 mi WNW 6.9 mph - N/A   Partly Cloudy
12:18 PM 28.4 °F 19.1 °F 21.2 °F 74% 30.24 in 10.0 mi NNW 10.4 mph - N/A   Mostly Cloudy
12:53 PM 28.0 °F 18.1 °F 21.0 °F 75% 30.34 in 10.0 mi NW 11.5 mph - N/A   Mostly Cloudy
1:12 PM 28.4 °F 18.5 °F 21.2 °F 74% 30.23 in 10.0 mi NW 11.5 mph - N/A   Scattered Clouds
1:53 PM 30.9 °F 24.3 °F 21.0 °F 67% 30.35 in 10.0 mi NNW 6.9 mph - N/A   Clear
2:53 PM 30.0 °F 22.4 °F 18.0 °F 61% 30.37 in 10.0 mi NNW 8.1 mph - N/A   Clear
3:53 PM 28.0 °F 20.0 °F 18.0 °F 66% 30.40 in 10.0 mi NW 8.1 mph - N/A   Clear
4:53 PM 26.1 °F 18.4 °F 18.0 °F 71% 30.41 in 10.0 mi NW 6.9 mph - N/A   Mostly Cloudy
5:53 PM 23.0 °F 14.7 °F 17.1 °F 78% 30.43 in 10.0 mi NW 6.9 mph - N/A   Mostly Cloudy
6:53 PM 21.0 °F 11.4 °F 16.0 °F 81% 30.45 in 10.0 mi NW 8.1 mph - N/A   Overcast
7:53 PM 19.9 °F 11.1 °F 16.0 °F 85% 30.46 in 10.0 mi NW 6.9 mph - N/A   Clear
8:53 PM 21.0 °F 13.4 °F 17.1 °F 85% 30.47 in 10.0 mi NW 5.8 mph - N/A   Mostly Cloudy
9:53 PM 23.0 °F 18.4 °F 18.0 °F 81% 30.48 in 10.0 mi NW 3.5 mph - N/A   Overcast
10:53 PM 24.1 °F 18.2 °F 19.9 °F 84% 30.47 in 10.0 mi NW 4.6 mph - N/A   Overcast
11:53 PM 24.1 °F 18.2 °F 19.0 °F 81% 30.47 in 10.0 mi NW 4.6 mph - N/A   Mostly Cloudy